Miscellaneous Local Product
Issued by NWS North Platte, NE

Home | Current Version | Previous Version | Text Only | Print | Product List | Glossary On
Versions: 1 2 3 4 5 6 7 8 9 10 11 12 13 14 15 16 17 18 19 20 21 22 23 24 25 26 27 28 29 30 31 32 33 34 35 36 37 38 39 40 41 42 43 44 45 46 47 48 49 50
000
AXUS43 KLBF 241610
MISLBF


WESTERN AND NORTH CENTRAL NEBRASKA HOURLY WEATHER ROUNDUP
NATIONAL WEATHER SERVICE NORTH PLATTE NE
1100 AM CDT SAT SEP 24 2016

NOTE: "FAIR" INDICATES FEW OR NO CLOUDS BELOW 12,000 FEET WITH NO
SIGNIFICANT WEATHER AND/OR OBSTRUCTIONS TO VISIBILITY.

NOTE: STATIONS NOT REPORTING VARIABLES SUCH AS SKY/WEATHER OR
PRESSURE ARE PROVIDED BY RAWS AND APRS NETWORKS AND ARE NOT UNDER
NATIONAL WEATHER SERVICE QUALITY CONTROL.

...OBSERVATIONS IN AND NEAR THE EASTERN PANHANDLE OF NEBRASKA...

CITY           SKY/WX    TMP DP  RH WIND       PRES   REMARKS
PINE RIDGE     SUNNY     58  43  57 SW16G24   29.90R
CHADRON        SUNNY     59  43  55 SW16      29.91R
ALLIANCE       SUNNY     58  42  55 W13       29.96R
SIDNEY         SUNNY     57  42  57 W8        30.02R
CRESCENT LAKE    N/A     58  40  51 W9          N/A
$$

...OBSERVATIONS IN NORTHERN NEBRASKA AND FAR SOUTHERN SOUTH DAKOTA...

CITY           SKY/WX    TMP DP  RH WIND       PRES   REMARKS
WINNER         FAIR      67  49  52 SW6       29.86S
VALENTINE      PTSUNNY   61  44  53 SW14      29.91R
THEDFORD       CLOUDY    60  48  64 W7        29.93F
AINSWORTH      CLOUDY    64  48  56 CALM      29.90S
O`NEILL        PTSUNNY   73  66  78 S12G17    29.88S
ORD            PTSUNNY   68  59  73 W7        29.89R
BROKEN BOW     CLOUDY    62  50  64 W8        29.92R
VALENTINE NWR    N/A     62  45  53 W9          N/A
BUTTE            N/A     66  55  69 W10         N/A
HALSEY           N/A     64  46  52 NW5G12      N/A
EWING            N/A     72  68  87 S8          N/A
$$

...OBSERVATIONS IN SOUTHWEST NEBRASKA AND FAR NORTHEAST COLORADO...

CITY           SKY/WX    TMP DP  RH WIND       PRES   REMARKS
WRAY           FAIR      55  41  58 W5        30.03
HOLYOKE        FAIR      61  43  51 W5        30.01S
IMPERIAL       SUNNY     61  41  47 NW6       29.99S
OGALLALA       SUNNY     65  42  43 NW10      29.98S
NORTH PLATTE   MOSUNNY   61  47  59 W8        29.97R
MCCOOK         SUNNY     62  47  57 NW8       29.96S
LEXINGTON      MOSUNNY   60  49  66 NW8       29.95R
STAPLETON        N/A     58  50  74 CALM        N/A
GOTHENBURG       N/A     58  46  64 NW3         N/A
CALLAWAY         N/A     58  51  78 NW6         N/A
$$

...OBSERVATIONS IN CENTRAL LINCOLN COUNTY AREA...

CITY           SKY/WX    TMP DP  RH WIND       PRES   REMARKS
N.P. AIRPORT   MOSUNNY   61  47  59 W8        29.97R
N.P. DOWNTOWN    N/A     60  47  63 NW3         N/A
N.P. SOUTHEAST   N/A     60  47  61 CALM        N/A
N.P. HILLCREST   N/A     59  49  68 W5          N/A
$$

...SOME OBSERVATIONS FROM AROUND THE REGION...

CITY           SKY/WX    TMP DP  RH WIND       PRES   REMARKS
DENVER         MOSUNNY   61  22  22 SW16      30.02R
LARAMIE        CLOUDY    43  34  70 W5        30.05R
CHEYENNE       SUNNY     50  39  66 S10       30.02R
SCOTTSBLUFF    SUNNY     57  41  55 W6        29.98R
RAPID CITY     SUNNY     62  45  53 W10       29.79S
BISMARCK       CLOUDY    70  64  81 SE13      29.74S
PIERRE         SUNNY     65  53  65 S12       29.79R
SIOUX FALLS    CLOUDY    76  67  73 SE18G25   29.91S
OMAHA          PTSUNNY   81  69  67 S15       29.95F
GRAND ISLAND   CLOUDY    70  68  93 S10       29.91S
KANSAS CITY    MOSUNNY   81  70  69 S14       30.04S
WICHITA        CLOUDY    78  71  79 S15       29.96S
OKLAHOMA CITY  PTSUNNY   79  70  74 S16G25    30.01R
DALLAS         PTSUNNY   85  72  65 S13       30.02S HX  91
AMARILLO       MOSUNNY   74  50  42 SW6       30.01F
DODGE CITY     CLOUDY    63  51  65 NW7       29.98R
HAYS           CLOUDY    63  50  63 W7        29.94F
GOODLAND       PTSUNNY   61  42  49 NW9       30.02R
$$




USA.gov is the U.S. government's official web portal to all federal, state and local government web resources and services.